Temp_Advection
nan nan nan nan nan nan nan nan nan nan nan nan nan nan nan nan nan nan nan nan nan nan nan nan nan nan nan nan nan nan nan nan nan nan nan nan nan nan nan nan nan nan nan nan nan nan nan nan nan
nan -0 0 -0 -0 -0 1 0 0 0 -0 -2 -1 -0 -1 -1 -1 -1 -0 -1 -1 -1 0 0 -0 -0 -0 -0 -0 -0 0 0 0 -0 -0 0 0 -0 -0 -0 0 0 -0 -0 0 -0 -0 0 nan
nan -0 0 0 -0 -0 1 0 -0 -0 -0 -1 -1 -0 -1 -1 -0 -1 -0 0 -1 -1 -0 -0 -0 -0 -0 -0 -0 -0 -0 -0 0 0 0 -0 -0 0 -0 -0 -0 0 -0 0 0 0 0 -0 nan
nan -0 0 -0 -1 -1 0 -0 -0 -0 -1 -1 -0 -0 -1 -1 -1 -0 -1 -0 0 0 0 -0 -0 -0 -0 -0 -0 0 0 0 -0 0 -0 -0 0 -0 -0 -0 -0 0 0 -0 0 0 0 -0 nan
nan 0 0 -0 -0 -1 1 -0 0 -0 -1 -1 0 -0 -0 -1 -1 -1 -1 -1 -1 -0 0 -0 -0 -0 -0 -0 -0 -0 -0 0 0 0 0 -0 0 -0 -0 0 0 -0 -0 0 0 0 0 0 nan
nan -0 -0 -0 -0 -2 2 -0 -1 -1 -1 -1 0 -1 -0 -1 -0 -0 -0 -0 -1 -1 0 0 -0 -0 -0 -0 0 0 -0 -0 -0 0 0 0 0 -0 -0 0 0 -0 -0 0 0 0 0 -0 nan
nan -0 0 -1 -0 -2 2 0 -1 -0 -1 -1 -1 -1 -1 -0 -1 -0 -0 -0 -0 -1 -1 0 0 0 -0 -0 0 0 -0 -0 -0 -0 -0 -0 0 0 -0 -0 -0 -0 -0 0 0 0 0 -0 nan
nan 0 0 -0 -0 -1 -0 -1 1 1 -0 -1 -1 -0 -1 -1 -1 -0 -0 -1 -1 -0 -0 -0 -0 -0 -0 0 0 0 0 -0 0 0 0 -0 -0 -0 0 -0 -0 0 0 0 0 0 0 -0 nan
nan 0 -0 -0 -1 -0 -3 1 -0 1 -0 -0 -1 -0 -0 -1 -1 -1 -1 -0 -0 -0 -0 -0 -0 -0 0 0 -0 0 0 0 -0 0 1 1 -0 -0 -0 0 0 0 0 0 -0 0 0 -0 nan
nan 0 0 -0 -1 -0 -0 0 -1 -0 0 -1 -1 -0 -0 -0 -0 -1 -2 -1 -1 -0 -0 -0 -0 -0 -0 0 -0 -0 -0 0 0 -0 -0 1 1 0 -0 -0 0 0 0 -0 0 0 -0 0 nan
nan -0 0 -0 -0 0 -1 -1 -0 -0 -0 -0 -1 0 -0 -0 -0 -0 -1 -1 -1 -1 -0 -0 -0 -0 -0 -0 -0 0 -1 -0 0 0 -0 -0 0 -0 -0 -0 -0 -0 0 0 0 0 -0 0 nan
nan -0 0 0 -0 0 -2 0 0 0 0 -0 -1 -0 -0 -0 -0 -0 -1 -1 -1 -0 -0 -0 -0 0 0 -0 -1 -0 0 -0 -0 0 -0 -0 1 0 0 0 -0 0 0 0 -0 0 0 0 nan
nan -0 -1 0 -0 -0 -0 1 -0 -0 0 -0 -0 -0 -0 -0 -0 -0 -0 -1 -1 -0 -0 -0 -0 -0 0 -0 -0 -0 -0 -0 -0 0 0 -0 0 -0 -0 -0 -0 -0 0 0 0 0 0 0 nan
nan -0 -1 -0 0 0 0 0 -0 -1 0 -0 -0 -0 -0 -0 -0 -0 -0 -1 -1 -1 -1 -0 0 0 -0 0 -0 -0 -0 -0 -0 0 -0 0 0 0 0 0 -0 0 0 0 0 -0 0 -0 nan
nan -0 -0 -0 0 0 0 0 0 -0 -0 -0 -0 -0 -0 -0 -0 -0 -0 -0 -0 -0 -0 -0 -0 0 0 0 0 -0 -0 -0 -0 -0 -0 0 -0 -0 0 0 0 0 0 0 0 0 -0 -0 nan
nan -0 0 0 0 -0 -1 1 0 1 0 -0 -0 -0 -0 -0 -0 -0 -0 -0 -0 -0 -0 -0 -0 -0 0 0 -0 0 0 -0 -0 -0 -0 0 -0 0 0 -0 0 0 0 0 0 0 0 -0 nan
nan -0 -1 -0 0 0 -0 1 -0 0 2 -0 -0 -0 -0 -0 -0 -0 -0 -0 -0 -0 0 -0 -0 -0 -0 0 0 -0 0 -0 -0 -0 -0 0 0 -0 0 0 -0 0 0 -0 0 -0 0 0 nan
nan 0 -1 -1 -0 0 0 -1 1 1 -1 1 -0 -0 0 -0 -0 -0 -0 -0 -0 -0 -0 -0 0 0 -0 -0 -0 0 0 0 0 0 -0 -0 0 0 0 0 -0 0 0 0 0 0 -0 0 nan
nan -0 -1 -0 -0 -0 0 -0 -1 0 -1 -1 0 0 0 0 0 -0 -0 -1 -1 -0 -0 -0 0 -0 -0 -0 0 -0 -0 -0 0 0 0 -0 0 0 -0 0 0 0 -0 0 0 0 0 0 nan
nan -1 -1 -0 -0 -0 -0 -0 0 -0 -1 -1 2 0 -0 1 1 0 -0 -1 -1 -0 -0 0 0 0 0 -0 0 0 -0 -0 -0 -0 0 -0 0 0 -0 0 -0 0 0 0 -0 -0 -0 0 nan
nan -0 -1 -0 -0 0 -0 -0 0 -0 -0 -2 -2 1 0 -1 -0 0 -0 -1 -1 -0 -0 -0 0 0 0 0 0 0 0 0 -0 -0 -0 -0 0 0 0 0 -0 -1 0 0 -0 0 0 0 nan
nan -3 -1 -0 -0 -0 -0 -0 0 0 -0 -0 -3 1 1 0 -1 0 -0 -0 -1 -1 -0 -0 -0 -0 -0 -0 -0 0 0 -0 -0 -0 -0 0 -0 0 0 0 -0 0 -0 0 0 -0 -0 -0 nan
nan -1 -2 -0 0 0 -0 -0 -0 -0 -0 -1 -3 -0 0 0 0 0 1 -0 -0 -1 -1 -0 -0 0 -0 -0 -0 0 0 -0 0 0 0 -0 -0 0 0 -0 -0 0 0 0 -0 -0 0 -0 nan
nan -2 -2 -1 -0 -0 -1 -0 -0 -1 -4 -3 -1 -0 -0 -0 0 -0 1 0 -0 -0 -0 -0 0 -0 0 0 0 0 0 0 0 -0 -0 -0 0 -0 -0 -0 -0 -0 0 0 -0 0 0 -0 nan
nan -0 -0 -0 -1 -0 -0 -0 0 -2 -2 -1 -0 -0 -1 -0 0 0 -1 1 0 1 -0 -0 -0 -0 0 0 0 0 0 0 -0 -0 0 0 0 0 -0 0 0 0 0 0 0 -0 0 0 nan
nan 1 -0 0 -0 0 -0 0 -0 -2 -1 0 -0 -1 -0 1 0 0 -0 0 1 0 -0 -0 -0 -0 0 0 -0 -0 0 0 -0 0 -0 -0 0 0 0 0 0 0 0 0 -0 -0 0 -0 nan
nan -0 0 -0 -0 0 -0 -0 -0 -0 -0 -1 -1 -1 0 0 0 0 0 -0 0 -0 0 -0 -0 0 0 -0 -0 -0 -0 -0 0 -0 -0 0 0 -0 -0 0 0 -0 0 0 -0 -0 0 0 nan
nan 0 1 -1 -1 0 -0 -1 -0 1 2 -1 -1 -1 -0 -1 -0 -2 -1 1 -1 -1 -0 -0 0 0 -0 -0 -0 -0 -0 0 0 -0 0 0 -0 -0 0 0 -0 -0 -0 -0 -0 0 -0 -0 nan
nan -0 -0 1 -1 -1 -0 -0 -1 0 -1 -0 0 -0 -0 -1 -1 -1 0 1 -1 -1 -1 1 0 -0 -0 -0 -0 -0 -0 -0 -0 -0 0 -0 -0 0 0 -0 -0 -0 -0 0 0 -0 -0 0 nan
nan nan nan nan nan nan nan nan nan nan nan nan nan nan nan nan nan nan nan nan nan nan nan nan nan nan nan nan nan nan nan nan nan nan nan nan nan nan nan nan nan nan nan nan nan nan nan nan nan
Wind_Speed
5 4 6 6 2 6 6 16 17 16 15 22 27 24 15 6 10 15 25 22 20 18 16 16 15 13 13 12 13 13 14 15 16 18 19 20 21 22 21 21 21 20 20 19 19 17 18 19 20
4 8 5 3 2 4 10 16 16 16 16 25 27 26 25 24 34 32 25 23 21 18 14 14 12 11 12 13 12 12 13 15 15 17 18 18 19 19 19 20 20 20 18 17 16 16 16 19 21
7 3 2 1 3 2 11 14 16 21 16 26 23 21 20 27 25 25 25 25 22 24 13 11 11 10 10 12 12 13 13 14 15 17 17 19 19 19 20 19 18 17 17 17 17 16 16 19 21
3 6 6 3 9 4 13 18 20 19 18 23 28 18 24 24 28 27 24 31 24 19 9 10 12 11 11 11 12 14 14 15 16 18 18 19 20 19 18 17 14 14 15 15 16 15 16 18 21
8 5 2 3 3 5 17 21 18 16 17 15 30 23 24 25 27 25 23 23 18 16 12 12 12 12 12 12 13 13 14 16 16 17 18 18 20 18 16 17 16 17 16 15 14 15 16 17 20
4 4 2 7 3 8 17 17 20 23 26 18 27 26 29 25 26 20 19 15 20 21 12 14 13 12 12 14 14 14 15 17 16 17 18 18 19 19 15 16 16 16 17 16 15 15 15 17 19
4 3 1 9 4 9 14 15 18 18 25 22 26 23 26 26 23 19 16 25 21 19 15 10 13 12 12 13 13 15 16 17 17 17 17 17 17 16 16 16 18 17 17 17 17 16 16 17 21
7 2 3 6 8 6 2 20 24 18 15 28 27 15 22 29 22 20 28 25 21 18 9 13 11 13 10 13 13 14 15 16 16 18 18 19 19 17 16 18 18 17 17 17 18 19 19 20 21
4 3 2 7 12 4 20 14 9 14 13 19 20 27 26 25 24 24 19 18 17 13 14 17 12 15 8 14 14 12 12 14 15 16 17 21 20 16 16 15 17 17 18 19 18 16 20 23 22
7 3 6 2 11 11 14 22 19 15 16 18 24 28 24 24 21 21 26 19 19 16 11 11 15 11 18 13 18 17 15 13 10 14 14 19 21 15 14 15 17 18 20 19 15 13 10 9 10
2 5 1 6 11 13 12 10 12 17 3 30 31 27 25 23 20 17 16 21 17 15 16 14 14 9 15 13 15 15 16 14 6 15 10 19 17 13 14 15 16 13 8 6 13 10 7 5 8
5 4 6 7 9 7 14 15 10 16 9 26 26 25 25 22 20 18 16 23 22 18 11 15 10 14 12 15 12 15 17 7 11 21 16 19 18 11 8 8 7 6 9 16 16 11 7 10 13
6 7 14 9 9 4 4 10 15 2 9 23 25 24 24 22 19 18 17 21 23 13 19 15 9 14 8 11 15 14 14 8 5 14 15 14 16 12 9 7 10 9 7 9 11 12 12 11 8
8 10 18 10 8 5 9 9 6 18 18 25 25 24 23 21 19 19 16 16 16 14 21 14 11 19 6 15 11 10 16 15 12 6 10 14 11 9 12 10 6 8 7 7 10 9 5 11 9
17 15 12 9 2 4 8 3 7 15 21 26 24 24 22 20 19 17 16 15 18 20 14 8 14 10 10 16 13 15 13 13 13 10 10 14 12 13 7 10 6 3 10 13 13 10 10 10 6
9 6 6 6 8 3 7 10 1 16 22 25 25 24 22 20 19 17 17 16 16 17 12 16 15 10 16 17 8 15 12 12 8 7 10 8 11 14 14 8 10 5 10 6 3 3 4 7 7
8 6 9 6 5 3 3 7 11 9 23 25 26 24 22 21 20 17 17 18 19 16 15 18 13 13 15 14 14 15 11 11 8 7 3 3 11 13 9 9 5 10 5 5 2 4 7 8 6
9 10 7 9 5 3 4 9 12 18 13 26 26 25 24 21 21 18 19 21 19 16 17 18 16 14 18 14 13 11 9 9 7 12 4 7 5 14 6 4 8 7 2 6 7 6 6 9 8
6 4 9 9 12 5 3 4 12 11 11 14 25 24 28 26 20 20 24 23 19 18 16 16 21 16 13 12 16 12 12 9 10 5 5 6 6 11 9 6 3 4 10 8 1 11 6 8 3
16 13 14 11 15 3 4 14 14 10 8 8 17 25 24 22 19 22 23 22 23 20 19 19 16 17 14 14 12 12 8 11 8 6 5 7 7 10 4 6 2 10 3 5 9 2 4 2 5
24 9 13 8 10 3 9 3 8 10 12 18 13 27 28 33 25 26 23 23 25 23 18 18 14 20 17 9 10 18 11 11 9 6 4 9 4 7 7 7 3 11 7 6 6 2 1 7 2
8 17 12 11 8 3 13 3 1 14 10 14 22 15 24 25 29 28 25 26 26 22 17 18 16 16 15 15 11 11 12 11 9 5 7 7 6 6 5 4 1 2 10 7 2 3 1 8 10
12 12 18 15 8 9 12 4 6 10 11 17 29 18 27 33 29 27 27 23 24 24 24 18 15 15 15 17 16 10 7 7 5 9 10 8 7 7 5 5 6 6 7 8 6 6 3 7 8
18 21 16 13 5 4 12 5 8 16 31 24 20 18 17 22 27 29 25 30 25 23 26 21 17 15 17 16 15 13 9 12 9 10 7 3 4 9 12 8 6 9 5 3 6 11 5 4 10
7 13 4 3 7 4 15 9 6 23 18 23 22 25 23 29 21 32 20 29 30 29 27 27 22 18 19 16 13 11 9 15 12 11 8 11 7 7 8 10 10 10 10 8 7 5 8 4 4
11 12 5 3 3 1 4 2 5 23 26 38 35 31 28 29 23 29 34 27 25 27 27 26 22 17 18 13 14 12 12 9 9 7 11 12 5 10 10 10 8 10 5 6 6 6 3 3 4
13 10 16 5 7 6 1 5 2 20 15 24 29 35 31 17 26 25 32 29 26 30 28 31 22 16 17 15 15 16 13 13 11 8 11 12 5 3 6 8 8 6 7 6 6 3 4 7 3
16 7 10 5 3 5 6 7 5 9 15 21 24 35 34 30 37 38 32 30 35 34 25 30 23 19 18 19 15 11 8 14 9 6 6 5 8 14 12 9 8 6 7 6 7 6 7 9 12
11 12 10 13 8 4 8 4 11 3 10 16 26 36 38 35 34 31 37 38 36 33 33 27 23 19 20 23 17 16 13 9 11 9 9 7 9 16 11 16 13 9 10 10 9 9 7 8 6
16 16 17 10 11 10 10 3 12 16 10 16 30 37 38 38 34 28 27 44 42 29 29 35 23 23 26 24 20 18 12 13 11 11 12 10 11 11 15 12 11 11 10 9 9 11 9 7 9
Wind_Direction
142 54 355 290 283 226 126 111 93 103 85 68 62 78 96 325 86 111 135 128 126 129 123 116 110 105 104 103 100 96 95 91 93 94 93 90 92 97 95 93 93 92 92 92 91 88 86 85 93
188 251 315 26 309 188 107 105 120 101 94 77 69 77 87 88 105 122 128 136 131 123 122 114 109 106 103 101 103 103 101 97 97 97 97 97 98 100 98 95 95 89 91 91 90 92 88 89 95
125 208 185 174 272 215 117 122 111 112 130 98 90 85 98 108 113 120 130 137 125 134 146 113 107 105 104 106 108 108 107 102 101 104 102 106 102 102 99 98 100 94 89 90 90 90 96 94 98
277 227 234 123 249 286 126 113 133 118 101 95 101 86 99 110 117 123 134 135 130 123 138 118 105 101 103 111 107 110 109 109 109 112 107 108 103 104 100 100 98 99 92 94 93 92 98 99 105
227 268 285 228 199 316 111 131 149 114 99 56 119 107 105 115 121 118 115 131 127 123 124 119 112 112 111 118 114 113 117 112 112 118 114 111 106 100 97 100 100 98 97 95 95 96 98 100 107
284 253 269 86 11 316 125 159 108 80 111 143 111 115 112 129 123 127 134 127 127 124 123 121 115 113 112 115 121 123 123 118 116 116 115 111 109 107 102 103 104 100 96 92 90 93 95 97 106
224 283 346 101 164 297 135 154 81 117 107 121 118 121 129 133 124 134 133 131 127 113 102 96 117 118 119 120 124 127 127 127 123 117 120 119 113 107 107 106 104 98 93 90 86 86 87 91 94
256 281 161 147 157 276 264 71 128 110 122 127 129 135 145 134 124 138 127 119 111 127 126 132 101 96 103 125 124 130 135 130 129 118 119 125 119 113 105 111 104 96 91 89 87 87 86 88 89
274 267 222 167 166 243 300 103 50 108 178 136 127 141 136 144 137 132 131 131 136 118 144 137 133 135 130 115 111 112 115 127 126 120 123 123 119 116 117 116 103 92 85 88 85 79 86 91 88
224 284 335 176 136 182 262 105 161 166 154 109 125 129 142 142 132 148 138 125 118 125 129 108 138 128 116 108 102 95 99 106 124 140 152 133 113 111 124 118 104 96 93 93 76 58 67 85 82
232 246 147 84 134 153 245 173 152 128 125 133 134 139 150 140 144 149 149 139 143 132 123 135 112 129 116 127 120 92 117 137 141 159 104 116 101 121 120 117 113 90 83 118 102 73 47 53 109
182 168 153 154 147 152 262 191 102 124 171 136 142 153 144 149 155 150 140 134 123 135 129 135 141 131 128 122 140 137 120 145 134 141 140 129 121 107 96 112 111 107 101 89 91 97 94 65 89
218 99 111 125 142 125 207 100 122 24 153 138 146 156 152 153 158 147 135 125 125 119 133 150 150 136 113 149 133 130 138 141 107 86 112 115 114 126 132 141 152 105 120 80 94 94 117 107 91
135 135 125 130 109 84 111 74 115 176 144 147 151 155 161 154 157 137 142 133 151 134 147 147 153 138 104 120 143 154 124 119 111 84 105 99 123 123 136 117 114 89 73 87 112 109 109 117 95
137 137 131 156 68 95 118 39 158 149 156 152 158 163 163 158 143 147 146 140 138 141 156 159 136 130 155 139 135 111 113 137 142 143 133 146 148 128 107 126 117 82 105 103 109 113 116 125 105
136 114 173 121 161 27 341 157 178 159 162 158 165 166 157 161 148 154 149 152 148 144 141 135 135 138 123 136 139 122 131 148 130 133 136 162 156 127 106 98 114 143 89 54 74 39 103 144 90
180 179 128 144 196 118 267 144 213 215 171 171 171 162 162 156 149 157 152 153 144 146 155 142 147 151 152 160 147 138 135 121 136 145 116 104 136 119 116 165 192 153 133 259 127 184 112 123 133
201 225 127 138 134 151 181 270 197 237 249 182 170 166 160 155 152 160 158 148 143 146 157 153 153 154 143 135 139 135 122 143 186 153 164 100 141 133 112 179 151 177 65 124 95 137 98 64 158
153 85 126 136 145 134 155 329 257 241 279 239 167 166 148 167 162 164 154 144 141 151 158 155 157 157 172 143 143 140 150 133 151 166 133 120 95 146 137 113 123 211 102 110 148 148 118 87 47
280 151 151 132 141 113 157 315 208 283 256 256 171 157 161 165 168 166 158 153 154 160 169 170 172 177 152 151 177 169 157 181 163 153 157 168 161 164 152 183 102 132 138 129 134 350 337 150 249
261 152 159 130 142 83 125 42 198 259 295 298 264 169 173 162 193 167 172 162 164 167 180 174 177 173 170 170 168 174 175 161 181 191 183 177 188 154 222 212 92 176 144 106 114 321 61 71 50
256 96 105 129 170 205 213 136 225 204 244 288 274 179 201 168 176 169 177 170 165 169 178 177 178 187 185 170 163 170 179 166 192 165 197 210 187 187 251 186 273 161 148 136 178 287 71 357 6
104 115 145 167 183 151 205 143 163 175 239 229 227 216 180 187 183 174 179 168 171 168 171 188 199 187 185 185 183 183 169 172 221 189 216 195 193 185 203 232 195 196 184 161 222 210 218 31 17
120 126 106 102 217 230 193 178 203 176 207 214 217 227 217 190 194 189 200 174 179 176 179 181 184 197 193 201 192 174 194 199 205 201 206 208 222 193 184 218 192 198 181 195 219 208 196 74 93
219 193 174 201 206 235 179 197 232 213 209 199 199 211 204 215 211 183 195 175 183 188 174 177 185 196 205 191 209 183 180 185 201 210 197 200 208 220 206 196 215 210 207 180 215 226 198 209 170
214 245 201 289 327 57 335 264 231 201 199 193 197 198 209 202 192 197 200 194 202 192 183 181 187 196 201 198 193 185 189 179 201 220 216 172 257 221 235 225 220 194 208 205 255 239 216 291 258
206 215 244 168 127 274 346 13 333 175 187 186 205 193 208 214 206 221 172 174 180 198 192 186 186 188 189 189 196 207 209 177 214 230 204 184 171 159 260 255 216 212 199 215 244 232 231 272 286
273 267 220 154 156 300 218 177 304 177 198 182 197 192 203 182 190 216 195 196 197 188 188 186 188 183 185 191 199 203 199 191 207 198 199 213 223 222 191 210 234 193 199 210 242 216 227 265 259
221 253 263 267 182 141 281 156 167 232 306 187 189 192 194 206 209 211 190 199 195 183 176 181 175 174 183 188 193 195 200 206 209 203 209 212 212 203 194 198 212 226 215 216 229 236 234 237 271
250 225 242 258 252 241 233 267 172 155 274 251 192 199 192 204 206 212 200 196 190 174 179 179 175 182 185 193 187 197 190 198 216 218 222 203 235 210 210 205 202 207 205 221 238 231 218 250 248
Height
1505 1505 1505 1509 1517 1505 1483 1480 1472 1478 1480 1481 1486 1492 1507 1507 1506 1530 1533 1537 1540 1543 1544 1547 1549 1550 1552 1553 1555 1556 1556 1556 1557 1558 1559 1559 1560 1561 1562 1563 1563 1565 1566 1567 1568 1569 1568 1569 1570
1504 1508 1509 1510 1512 1502 1487 1476 1482 1483 1487 1490 1497 1500 1507 1515 1514 1524 1533 1538 1541 1544 1546 1547 1550 1552 1553 1554 1555 1557 1558 1559 1560 1560 1561 1562 1564 1565 1565 1566 1568 1569 1569 1570 1571 1571 1572 1572 1572
1505 1507 1509 1512 1510 1503 1489 1479 1483 1489 1491 1492 1502 1507 1512 1520 1524 1527 1534 1538 1542 1546 1547 1549 1551 1552 1553 1555 1557 1558 1560 1561 1562 1564 1565 1566 1567 1568 1569 1570 1571 1572 1573 1574 1574 1573 1574 1574 1575
1508 1508 1508 1502 1509 1485 1478 1482 1487 1488 1493 1500 1506 1513 1518 1523 1527 1531 1536 1533 1544 1545 1548 1550 1552 1553 1554 1556 1558 1560 1562 1563 1565 1566 1567 1568 1570 1571 1572 1573 1574 1575 1575 1575 1576 1576 1577 1577 1578
1509 1506 1506 1505 1501 1486 1479 1486 1485 1487 1497 1504 1507 1518 1522 1529 1532 1536 1539 1544 1544 1546 1549 1551 1553 1554 1556 1558 1560 1562 1563 1565 1567 1569 1570 1571 1572 1574 1575 1576 1576 1577 1577 1578 1578 1578 1579 1580 1581
1509 1505 1507 1511 1518 1497 1484 1488 1493 1494 1502 1512 1514 1520 1526 1532 1534 1539 1542 1544 1547 1550 1552 1554 1555 1556 1557 1560 1561 1563 1565 1567 1569 1571 1573 1574 1574 1575 1576 1578 1580 1580 1580 1582 1582 1582 1582 1582 1583
1509 1507 1505 1513 1520 1507 1487 1491 1494 1496 1501 1511 1516 1522 1530 1532 1537 1541 1544 1547 1551 1555 1557 1559 1558 1558 1559 1561 1562 1564 1567 1569 1570 1571 1573 1575 1577 1578 1579 1581 1582 1583 1583 1584 1585 1586 1586 1586 1586
1506 1507 1506 1509 1518 1512 1492 1496 1504 1499 1508 1511 1517 1526 1528 1533 1538 1542 1546 1549 1553 1554 1553 1562 1562 1561 1562 1563 1566 1568 1569 1571 1571 1572 1572 1574 1577 1581 1583 1584 1585 1586 1586 1587 1588 1588 1588 1589 1590
1505 1509 1508 1506 1516 1517 1501 1499 1507 1507 1505 1510 1514 1522 1528 1533 1537 1541 1546 1550 1554 1557 1558 1562 1564 1563 1565 1568 1572 1574 1578 1576 1577 1575 1569 1568 1574 1581 1585 1586 1587 1588 1589 1589 1590 1591 1591 1591 1592
1503 1507 1504 1500 1503 1510 1502 1504 1509 1509 1505 1510 1518 1525 1531 1534 1539 1542 1546 1550 1554 1559 1560 1564 1564 1565 1569 1575 1574 1577 1580 1582 1579 1574 1571 1570 1572 1581 1586 1587 1589 1589 1589 1590 1592 1592 1593 1593 1594
1501 1506 1502 1501 1506 1506 1507 1502 1504 1505 1511 1513 1521 1526 1531 1536 1542 1544 1546 1549 1551 1557 1561 1563 1565 1567 1570 1576 1576 1576 1582 1580 1576 1574 1569 1572 1577 1584 1588 1589 1589 1589 1590 1590 1591 1592 1593 1594 1595
1500 1499 1503 1506 1509 1513 1508 1503 1503 1506 1512 1514 1522 1529 1532 1538 1541 1544 1546 1550 1553 1559 1561 1564 1565 1568 1572 1575 1580 1578 1583 1579 1573 1569 1570 1565 1583 1588 1590 1589 1589 1592 1590 1592 1592 1592 1595 1596 1597
1497 1500 1503 1509 1510 1512 1509 1502 1511 1513 1513 1517 1525 1530 1534 1538 1541 1544 1548 1550 1555 1559 1562 1564 1567 1570 1572 1573 1580 1583 1585 1582 1575 1571 1577 1580 1586 1592 1592 1591 1590 1591 1594 1595 1595 1595 1597 1598 1601
1497 1500 1505 1514 1513 1512 1507 1510 1511 1518 1515 1520 1527 1531 1535 1538 1541 1545 1550 1553 1556 1559 1562 1565 1568 1571 1573 1575 1577 1581 1585 1585 1582 1581 1586 1585 1591 1593 1593 1592 1593 1595 1592 1598 1597 1596 1598 1600 1602
1493 1503 1509 1515 1517 1516 1515 1518 1512 1514 1517 1522 1528 1532 1534 1539 1542 1547 1551 1555 1558 1561 1561 1566 1569 1572 1574 1577 1579 1582 1584 1587 1588 1588 1588 1591 1593 1593 1594 1594 1595 1597 1600 1598 1598 1597 1600 1601 1602
1493 1505 1514 1519 1520 1522 1523 1525 1516 1516 1518 1523 1527 1531 1535 1539 1544 1549 1552 1556 1560 1561 1565 1567 1571 1573 1575 1578 1580 1582 1586 1587 1589 1589 1590 1591 1593 1595 1596 1597 1594 1597 1596 1598 1598 1599 1598 1602 1602
1487 1506 1515 1522 1523 1524 1526 1525 1520 1518 1519 1522 1525 1529 1535 1539 1544 1549 1553 1556 1559 1562 1566 1569 1571 1574 1576 1578 1580 1583 1585 1586 1589 1589 1590 1591 1593 1594 1594 1594 1594 1595 1596 1597 1599 1599 1600 1601 1603
1492 1490 1509 1516 1523 1523 1529 1530 1523 1520 1521 1520 1523 1528 1533 1540 1544 1549 1553 1556 1559 1564 1568 1570 1573 1575 1577 1578 1580 1584 1583 1586 1586 1589 1590 1591 1593 1592 1591 1592 1597 1598 1597 1595 1600 1601 1600 1600 1601
1480 1493 1511 1516 1521 1527 1534 1536 1530 1525 1523 1519 1521 1526 1534 1539 1545 1549 1552 1555 1560 1566 1569 1571 1572 1575 1577 1579 1581 1582 1584 1586 1587 1589 1591 1593 1594 1592 1591 1599 1605 1605 1603 1601 1599 1600 1600 1602 1598
1479 1486 1511 1518 1520 1525 1533 1528 1527 1528 1526 1522 1520 1525 1533 1537 1543 1548 1551 1555 1559 1565 1568 1571 1573 1576 1577 1579 1581 1583 1584 1584 1586 1589 1592 1592 1595 1594 1590 1599 1603 1601 1604 1601 1599 1600 1599 1599 1599
1478 1479 1505 1515 1524 1527 1531 1535 1536 1527 1527 1524 1522 1526 1531 1535 1543 1546 1551 1554 1556 1561 1567 1570 1573 1575 1576 1579 1580 1583 1584 1585 1587 1590 1592 1593 1596 1596 1592 1593 1600 1602 1598 1594 1599 1601 1600 1602 1604
1473 1487 1504 1522 1526 1529 1523 1541 1536 1536 1535 1531 1525 1527 1531 1532 1538 1543 1548 1552 1555 1558 1564 1568 1571 1574 1575 1577 1580 1582 1585 1586 1588 1589 1591 1592 1596 1597 1597 1596 1594 1593 1594 1595 1598 1603 1605 1608 1610
1491 1480 1500 1513 1525 1522 1525 1528 1532 1535 1538 1532 1533 1526 1530 1534 1536 1542 1545 1551 1554 1558 1561 1565 1569 1572 1575 1576 1579 1584 1588 1590 1590 1590 1590 1591 1593 1596 1597 1597 1597 1596 1596 1596 1600 1605 1610 1609 1604
1475 1485 1502 1511 1526 1528 1508 1510 1520 1518 1507 1519 1523 1523 1526 1528 1534 1538 1543 1546 1553 1557 1558 1561 1565 1570 1573 1576 1580 1583 1583 1588 1590 1590 1589 1590 1592 1594 1595 1596 1597 1596 1596 1597 1601 1606 1609 1611 1608
1475 1475 1509 1528 1517 1513 1492 1498 1498 1495 1494 1502 1514 1520 1523 1528 1532 1534 1540 1542 1549 1553 1557 1558 1561 1566 1570 1574 1579 1583 1583 1584 1588 1588 1587 1590 1594 1596 1597 1597 1596 1597 1598 1599 1600 1603 1608 1610 1611
1470 1471 1492 1518 1519 1514 1495 1505 1494 1475 1484 1493 1501 1513 1519 1523 1529 1534 1535 1541 1546 1551 1554 1555 1558 1562 1566 1571 1576 1581 1585 1588 1588 1586 1586 1588 1593 1597 1599 1600 1598 1597 1597 1598 1597 1598 1602 1607 1610
1463 1475 1462 1485 1517 1511 1519 1517 1483 1479 1487 1495 1502 1505 1509 1518 1522 1528 1531 1536 1542 1550 1552 1551 1554 1558 1564 1568 1573 1577 1581 1583 1582 1583 1585 1590 1590 1593 1596 1600 1599 1597 1596 1595 1596 1596 1596 1599 1600
1457 1453 1474 1482 1520 1525 1518 1511 1515 1491 1487 1487 1494 1497 1507 1516 1524 1522 1527 1531 1539 1542 1550 1550 1552 1557 1562 1567 1569 1573 1576 1579 1580 1582 1584 1589 1589 1588 1589 1598 1599 1595 1593 1594 1596 1597 1599 1601 1601
1465 1467 1462 1457 1474 1509 1520 1494 1491 1496 1498 1480 1487 1493 1499 1506 1515 1520 1521 1530 1534 1540 1547 1550 1554 1558 1562 1565 1568 1571 1574 1577 1579 1582 1584 1588 1592 1593 1593 1597 1598 1594 1592 1593 1594 1596 1598 1599 1600
1456 1459 1460 1472 1476 1465 1470 1478 1478 1475 1484 1480 1485 1489 1493 1500 1506 1510 1518 1522 1531 1535 1543 1552 1553 1553 1556 1563 1566 1569 1571 1575 1577 1580 1584 1586 1588 1591 1593 1593 1593 1592 1591 1593 1594 1594 1596 1596 1598